Sault Ste Marie, MI

11:27 PM EST on February 23, 2018 (GMT -0500)
Sault Ste Marie Municipal / Sanderson Field

Weather History for KANJ - January, 2014

Change the Weather History Date:

Saturday, January 18, 2014

  Actual Average Record
Temperature  
Mean Temperature 12 °F 15 °F  
Max Temperature 19 °F 23 °F 45 °F (1973)
Min Temperature 4 °F 7 °F -26 °F (1997)
Degree Days  
Heating Degree Days 53 50  
Month to date heating degree days 910 888  
Since 1 July heating degree days 4425 4147  
Moisture  
Dew Point 7 °F    
Average Humidity 77    
Maximum Humidity 92    
Minimum Humidity 61    
Precipitation  
Precipitation T in 0.08 in 0.68 in (1996)
Month to date precipitation 1.19 1.36  
Year to date precipitation 1.19 1.36  
Snow  
Snow T in 1.10 in 7.70 in (1992)
Month to date snowfall 15.5 18.9  
Since 1 July snowfall 70.2 69.1  
Snow Depth 19.00 in    
Sea Level Pressure  
Sea Level Pressure 29.80 in    
Wind  
Wind Speed 4 mph (West)    
Max Wind Speed 13 mph    
Max Gust Speed 15 mph    
Visibility 8 miles    
Events Snow    
T = Trace of Precipitation, MM = Missing Value Source: NWS Daily Summary

Daily Weather History Graph

Daily Weather History Graph

Search for Another Location

Airport or City:

Trip Planner

Search our weather history database for the weather conditions in past years. The results will help you decide how hot, cold, wet, or windy it might be!

Date:

Astronomy

Jan. 18, 2014 Rise Set
Actual Time 8:14 AM EST 5:21 PM EST
Civil Twilight 7:41 AM EST 5:54 PM EST
Nautical Twilight 7:04 AM EST 6:32 PM EST
Astronomical Twilight 6:28 AM EST 7:08 PM EST
Moon 8:14 PM EST (1/18) 9:03 AM EST (1/18)
Length of Visible Light 10h 13m
Length of Day
9h 06m
Waning Gibbous, 94% of the Moon is Illuminated
Jan 18
Waning Gibbous
Jan 24
Last Quarter
Jan 30
New
Feb 6
First Quarter
Feb 14
Full

Hourly Weather History & Observations

Time (EST) Temp. Windchill Dew Point Humidity Pressure Visibility Wind Dir Wind Speed Gust Speed Precip Events Conditions
12:55 AM 17.1 °F 6.6 °F 12.0 °F 81% 29.77 in 9.0 mi NW 8.1 mph - 0.00 in   Overcast
1:55 AM 16.0 °F 5.3 °F 10.9 °F 81% 29.79 in 6.0 mi NNW 8.1 mph - 0.00 in Snow Light Snow
2:55 AM 15.1 °F 6.4 °F 9.0 °F 77% 29.81 in 6.0 mi NW 5.8 mph - 0.00 in   Haze
3:55 AM 14.0 °F 3.9 °F 9.0 °F 80% 29.81 in 5.0 mi NW 6.9 mph - 0.00 in Snow Light Snow
4:55 AM 12.9 °F 6.9 °F 7.0 °F 77% 29.81 in 10.0 mi WNW 3.5 mph - 0.00 in   Overcast
5:55 AM 9.0 °F - 6.1 °F 88% 29.81 in 9.0 mi Calm Calm - N/A   Overcast
6:15 AM 9.0 °F 2.4 °F 5.0 °F 84% 29.78 in 4.0 mi WNW 3.5 mph - 0.00 in Snow Light Snow
6:35 AM 7.0 °F -3.3 °F 3.9 °F 87% 29.79 in 3.0 mi WNW 5.8 mph - 0.00 in Snow Light Snow
6:46 AM 9.0 °F -0.9 °F 5.0 °F 84% 29.79 in 2.5 mi NW 5.8 mph - 0.00 in Snow Light Snow
6:55 AM 8.1 °F -0.5 °F 3.9 °F 83% 29.82 in 3.0 mi NW 4.6 mph - 0.00 in Snow Light Snow
7:55 AM 7.0 °F - 3.0 °F 84% 29.84 in 9.0 mi Calm Calm - 0.00 in   Overcast
8:55 AM 5.0 °F - 1.9 °F 87% 29.85 in 7.0 mi Calm Calm - N/A   Overcast
9:55 AM 10.0 °F 3.6 °F 7.0 °F 87% 29.86 in 10.0 mi NE 3.5 mph - N/A   Scattered Clouds
10:55 AM 12.9 °F - 6.1 °F 74% 29.87 in 10.0 mi Calm Calm - N/A   Clear
11:28 AM 10.9 °F - 6.1 °F 81% 29.83 in 10.0 mi Calm Calm - N/A   Partly Cloudy
11:55 AM 14.0 °F - 7.0 °F 74% 29.86 in 7.0 mi Calm Calm - N/A   Partly Cloudy
12:55 PM 17.1 °F 11.7 °F 7.0 °F 65% 29.84 in 10.0 mi WNW 3.5 mph - N/A   Clear
1:55 PM 17.1 °F 8.7 °F 7.0 °F 65% 29.83 in 10.0 mi West 5.8 mph - N/A   Clear
2:55 PM 18.0 °F 9.8 °F 7.0 °F 62% 29.82 in 10.0 mi West 5.8 mph - N/A   Clear
3:55 PM 17.1 °F 8.7 °F 6.1 °F 62% 29.83 in 10.0 mi West 5.8 mph - N/A   Clear
4:55 PM 16.0 °F 8.8 °F 7.0 °F 68% 29.83 in 10.0 mi WNW 4.6 mph - N/A   Clear
5:55 PM 12.9 °F 6.9 °F 6.1 °F 74% 29.82 in 10.0 mi NW 3.5 mph - N/A   Clear
6:55 PM 10.0 °F 1.8 °F 5.0 °F 80% 29.80 in 10.0 mi South 4.6 mph - N/A   Scattered Clouds
7:55 PM 12.0 °F 4.1 °F 7.0 °F 80% 29.79 in 10.0 mi South 4.6 mph - N/A   Overcast
8:55 PM 12.9 °F 6.9 °F 8.1 °F 81% 29.76 in 10.0 mi SSE 3.5 mph - N/A   Overcast
9:55 PM 10.9 °F 2.9 °F 8.1 °F 88% 29.72 in 10.0 mi South 4.6 mph - N/A   Mostly Cloudy
10:55 PM 12.9 °F 6.9 °F 9.0 °F 84% 29.68 in 10.0 mi South 3.5 mph - N/A   Overcast
11:55 PM 12.9 °F 2.6 °F 9.0 °F 84% 29.64 in 10.0 mi SW 6.9 mph - N/A   Mostly Cloudy